{"data":{"norad_id":66569,"epoch":"2026-09-20T11:19:14.944800Z","epoch_age_seconds":91597,"freshness":"FRESH","line1":"1 66569U 25268N   26263.47170075  .00010507  00000+0  39075-3 0  9994","line2":"2 66569  43.0042 326.6464 0000651 262.3837  97.6941 15.27583583 47757","mean_motion":15.27583583,"eccentricity":6.51e-5,"inclination_deg":43.0042,"raan_deg":326.6464,"arg_perigee_deg":262.3837,"mean_anomaly_deg":97.6941,"bstar":0.00039075,"rev_number":4775,"period_min":94.26652760774,"perigee_km":482.59170475324,"apogee_km":483.48502978605,"semimajor_km":6861.1753672696,"source":"CELESTRAK","updated_at":"2026-09-21T09:00:35.972010Z"}}